Location: Sweet Grass
(48.9965°N, 111.9649°W)
Time: 12:06:19
(UTC+00:00)

Envisat - Pass Details

Date: 06 December 2022
Orbit: 763 x 765 km, 98.2° (Epoch: 06 February)

Event Time Altitude Azimuth Distance (km) Brightness Sun altitude
Rises 00:25:16 0° 223° (SW) 3,222 7.7 -8.5°
Reaches altitude 10° 00:29:21 10° 256° (WSW) 2,304 7.1 -9.1°
Maximum altitude 00:31:02 12° 275° (W) 2,201 6.4 -9.4°
Drops below altitude 10° 00:32:43 10° 295° (WNW) 2,310 6.1 -9.6°
Sets 00:36:51 0° 328° (NNW) 3,244 6.4 -10.3°
